Regional Weather Roundup
Issued by NWS

Home | Current Version | Previous Version | Graphics & Text | Print | Product List | Glossary On
Versions: 1 2 3 4 5 6 7 8 9 10 11 12 13 14 15 16 17 18 19 20 21 22 23 24 25 26 27 28 29 30 31 32 33 34 35 36 37 38 39 40 41 42 43 44 45 46 47
000
ASUS45 KPSR 230710
RWRAZ

ARIZONA REGIONAL HOURLY WEATHER ROUNDUP
NATIONAL WEATHER SERVICE TUCSON AZ
1200 AM MST FRI JUN 23 2017

NOTE: FAIR INDICATES FEW OR NO CLOUDS BELOW 12,000 FEET WITH NO
SIGNIFICANT WEATHER AND/OR OBSTRUCTIONS TO VISIBILITY.

AZZ001>003-036-230800-
NORTHWEST ARIZONA

CITY           SKY/WX    TMP DP  RH WIND       PRES   REMARKS
BULLHEAD CITY  CLEAR    102  50  17 VRB3      29.65R
KINGMAN        CLEAR     84  41  21 SW10      29.90R
$$

AZZ004>008-015-016-018-230800-
NORTH CENTRAL ARIZONA

CITY           SKY/WX    TMP DP  RH WIND       PRES   REMARKS
GRAND CANYON   CLEAR     54  21  27 NE3       30.20R
PRESCOTT       CLEAR     79  36  21 SW10      30.05F
FLAGSTAFF      CLEAR     57  28  33 CALM      30.22S
PAYSON         SUNNY     77  36  22 CALM      30.09S
PAGE           CLEAR     85  30  13 SW3       29.93R
$$

AZZ009>014-017-230800-
NORTHEAST ARIZONA

CITY           SKY/WX    TMP DP  RH WIND       PRES   REMARKS
WINSLOW        CLEAR     79  30  16 SW14      30.01R
SAINT JOHNS    CLEAR     81  32  17 W13       30.07R
WINDOW ROCK    CLEAR     65  19  17 NE7       30.13R
SHOW LOW       CLEAR     72  34  25 S12       30.17S
$$

AZZ023-230800-
GREATER PHOENIX AREA

CITY           SKY/WX    TMP DP  RH WIND       PRES   REMARKS
PHOENIX        CLEAR     97  59  28 W18       29.70R
BUCKEYE          N/A     90  59  35 SW8       29.74S
LUKE AFB       CLEAR     94  59  31 SW18      29.70R
DEER VALLEY    CLEAR     94  58  29 SW14      29.74R
SCOTTSDALE     CLEAR     95  58  28 W5        29.76R
$$

AZZ027-028-230800-
SOUTHWEST MARICOPA COUNTY AND PINAL COUNTY

CITY           SKY/WX    TMP DP  RH WIND       PRES   REMARKS
CASA GRANDE    CLEAR     91  58  32 CALM      29.77R
$$

AZZ503-504-507>509-230800-
SOUTHEAST ARIZONA

CITY           SKY/WX    TMP DP  RH WIND       PRES   REMARKS
TUCSON         PTCLDY    91  59  33 CALM      29.88S
DAVIS-MONTHAN  PTCLDY    91  58  33 NW7       29.87S
NOGALES        CLOUDY    84  59  42 S10       30.01R
SIERRA VISTA   CLOUDY    87  49  26 SW14      30.05R
DOUGLAS        MOCLDY    83  47  28 CALM      29.98F
SAFFORD        CLEAR     92  40  16 NW14      29.83S
$$

AZZ020-021-025-026-031-230800-
SOUTHWEST ARIZONA

CITY           SKY/WX    TMP DP  RH WIND       PRES   REMARKS
YUMA           CLEAR     84  65  52 S8        29.70R
$$

CAZ031-033-041-043-047-048-061-230800-
SOUTHERN CALIFORNIA

CITY           SKY/WX    TMP DP  RH WIND       PRES   REMARKS
DOWNTOWN L.A.  NOT AVBL
L.A. AIRPORT   CLOUDY    65  61  87 VRB6      29.88F
SAN DIEGO      CLOUDY    67  61  81 N3        29.89F
BURBANK        PTCLDY    63  59  87 SE7       29.88S
ONTARIO        CLEAR     64  59  83 W6        29.88S
RIVERSIDE      CLEAR     65  60  84 W7        29.89R
PALM SPRINGS   CLEAR     92  54  27 VRB3      29.74R
EL CENTRO NAS  CLEAR     84  59  42 CALM      29.67S
IMPERIAL       CLEAR     86  65  49 E8        29.65S
BLYTHE         CLEAR     91  61  36 S14       29.68S
NEEDLES        CLEAR    101  55  21 SE6       29.66R
$$

NVZ020-UTZ003-230800-
SOUTHERN NEVADA-UTAH

CITY           SKY/WX    TMP DP  RH WIND       PRES   REMARKS
LAS VEGAS      CLEAR    100  15   4 S7        29.73S
SALT LAKE CITY CLEAR     72  42  34 NW13      30.07R
$$

NMZ009-TXZ055-230800-
NEW MEXICO-WEST TEXAS

CITY           SKY/WX    TMP DP  RH WIND       PRES   REMARKS
ALBUQUERQUE    CLEAR     83  22  10 N6        29.95S
EL PASO        MOCLDY    94  40  15 W9        29.81F
$$


........................KEY........................
SKY/WX - SKY CONDITION/WEATHER
TMP    - TEMPERATURE IN FAHRENHEIT
DP     - DEWPOINT IN FAHRENHEIT
RH     - RELATIVE HUMIDITY IN PERCENT
WIND   - DIRECTION AND SPEED IN MILES PER HOUR (MPH)
VRB    - VARIABLE WIND DIRECTION
PRES   - MEAN SEA LEVEL PRESSURE IN INCHES OF MERCURY
         F - FALLING PRESSURE   R - RISING PRESSURE
         S - STEADY PRESSURE
VSB    - VISIBILITY IN MILES
HX     - HEAT INDEX IN FAHRENHEIT
WCI    - WIND CHILL INDEX IN FAHRENHEIT
TC     - TEMPERATURE IN CELSIUS WHICH IS ALSO KNOWN AS
         TEMPERATURE IN CENTIGRADE
AFB    - AIR FORCE BASE
         LUKE AFB IS LUKE AIR FORCE BASE
         DAVIS-MONTHAN IS DAVIS-MONTHAN AIR FORCE BASE
NAS    - NAVAL AIR STATION
         EL CENTRO NAS IS EL CENTRO NAVAL AIR STATION
N/A    - NOT AVAILABLE





USA.gov is the U.S. government's official web portal to all federal, state and local government web resources and services.